Regional Weather Roundup
Issued by NWS Kansas City/Pleasant Hill, MO

Home | Current Version | Previous Version | Text Only | Print | Product List | Glossary On
Versions: 1 2 3 4 5 6 7 8 9 10 11 12 13 14 15 16 17 18 19 20 21 22 23 24 25 26 27 28 29 30 31 32 33 34 35 36 37 38 39 40 41 42 43 44 45 46 47 48 49 50
000
ASUS43 KEAX 040110
RWREAX

WEATHER ROUNDUP FOR EASTERN KANSAS AND NORTHWEST MISSOURI
NATIONAL WEATHER SERVICE KANSAS CITY/PLEASANT HILL MO
800 PM CDT MON AUG 03 2015

KSZ040-057-103>105-MOZ028-029-037-043-040200-
...KANSAS CITY METROPOLITAN AREA...

CITY           SKY/WX    TMP DP  RH WIND       PRES   REMARKS
K.C. INTL      MOCLDY    81  70  69 NE10      29.91S
K.C. DOWNTOWN  CLEAR     83  70  64 E12       29.89R
LEES SUMMIT    CLEAR     83  72  69 E8        29.91R
OLATHE - IXD   PTCLDY    86  72  62 S5        29.90S HX  92
OLATHE - OJC   PTCLDY    85  74  69 SE7       29.89S HX  92
LAWRENCE       PTCLDY    83  76  79 NE5       29.88S HX  91

$$

MOZ001>008-011>017-020>025-030>033-038>040-044>046-053-054-040200-
...NORTHERN AND CENTRAL MISSOURI...

CITY           SKY/WX    TMP DP  RH WIND       PRES   REMARKS
ST. JOSEPH     PTCLDY    78  69  73 E8        29.91S
WARRENSBURG    PTCLDY    81  72  74 NE3       29.90R
WHITEMAN AFB   PTCLDY    83  73  72 E2        29.90R
CLINTON        NOT AVBL
SEDALIA        PTCLDY    83  73  72 E3        29.92R
WARSAW         NOT AVBL
CHILLICOTHE      N/A     79  69  71 CALM      29.94R
KIRKSVILLE     PTCLDY    74  68  81 CALM      29.95R

$$

MOZ041-047>049-056>058-063>065-088>090-097-040200-
...EASTERN AND SOUTHERN MISSOURI...

CITY           SKY/WX    TMP DP  RH WIND       PRES   REMARKS
ST. LOUIS INTL MOCLDY    84  67  56 N3        29.90S
SPIRIT OF STL  CLEAR     80  74  81 CALM      29.89R
COLUMBIA       CLEAR     83  69  62 NW5       29.92R
JEFFERSON CITY CLEAR     85  71  63 CALM      29.89S HX  90
ROLLA          CLEAR     80  72  76 S3        29.92S
OSAGE BEACH    PTCLDY    82  72  69 SE3       29.92S
SPRINGFIELD    PTCLDY    82  68  62 SW6       29.94S
BRANSON        MOCLDY    84  73  70 CALM      29.97R HX  91
JOPLIN         PTCLDY    87  65  47 SW9       29.94R
WEST PLAINS    PTCLDY    84  70  62 CALM      29.97R

$$

IAZ060-094-KSZ022-034>040-054-083-096-NEZ052-066-093-040200-
...KANSAS...SOUTHEAST NEBRASKA AND IOWA...

CITY           SKY/WX    TMP DP  RH WIND       PRES   REMARKS
TOPEKA         PTCLDY    89  73  59 SE3       29.88S HX  97
MANHATTAN      PTCLDY    89  72  56 S3        29.87S HX  96
EMPORIA        CLOUDY    86  70  58 S5        29.89S HX  90
CHANUTE        MOCLDY    85  66  53 S7        29.91S
WICHITA        PTCLDY    86  70  58 SE10      29.90R HX  90
OMAHA          MOCLDY    79  66  64 NE5       29.93S
LINCOLN        MOCLDY    79  65  62 E8        29.94S
FALLS CITY     MOCLDY    77  71  82 E8        29.91S
LAMONI         PTCLDY    76  67  73 CALM      29.94S
DES MOINES     PTCLDY    77  55  46 N6        29.94R

$$




USA.gov is the U.S. government's official web portal to all federal, state and local government web resources and services.